Location: Dompnac
(44.5644°N, 4.1026°E)
Time: 00:50:57
(UTC+00:00)

Cosmos 2082 Rocket - Pass Details

Date: 26 June 2021
Orbit: 832 x 854 km, 71.0° (Epoch: 30 July)

Event Time Altitude Azimuth Distance (km) Brightness Sun altitude
Exits shadow 03:20:29 - 219° (SW) 2,671 4.1 -6.4°
Reaches altitude 10° 03:21:07 10° 220° (SW) 2,435 3.9 -6.3°
Maximum altitude 03:26:37 57° 300° (WNW) 975 2.5 -5.5°
Drops below altitude 10° 03:32:09 10° 19° (NNE) 2,456 5.7 -4.8°
Sets 03:34:40 0° 23° (NNE) 3,397 6.6 -4.5°
